Location: doobydoo
(53.3403°N, 2.6908°W)
Time: 13:49:57
(UTC+00:00)

ISS - Pass Details

Date: 22 December 2021
Orbit: 413 x 422 km, 51.6° (Epoch: 19 January)

Event Time Altitude Azimuth Distance (km) Brightness Sun altitude
Exits shadow 05:50:43 - 189° (S) 1,663 -0.7 -21.3°
Reaches altitude 10° 05:51:18 10° 182° (S) 1,503 -0.9 -21.2°
Maximum altitude 05:53:24 16° 143° (SE) 1,208 -0.9 -20.9°
Drops below altitude 10° 05:55:31 10° 105° (ESE) 1,511 0.3 -20.6°
Sets 05:58:13 0° 82° (E) 2,382 1.3 -20.2°
